Weather History for York, PA

Change the Weather History Date:

Saturday, October 20, 2012

  Actual Average Record
Temperature  
Mean Temperature 52 °F -  
Max Temperature 62 °F 0 °F 72 °F (2000)
Min Temperature 43 °F - 26 °F (2008)
Degree Days  
Heating Degree Days 13    
Growing Degree Days 2 (Base 50)    
Moisture  
Dew Point 43 °F    
Average Humidity 79    
Maximum Humidity 100    
Minimum Humidity 39    
Precipitation  
Precipitation 0.01 in - - ()
Sea Level Pressure  
Sea Level Pressure 29.76 in    
Wind  
Wind Speed 2 mph (West)    
Max Wind Speed 13 mph    
Max Gust Speed 20 mph    
Visibility 6 miles    
Events Fog    
Averages and records for this station are not official NWS values.
T = Trace of Precipitation, MM = Missing Value Source: NWS Daily Summary

Daily Weather History Graph

Daily Weather History Graph

Search for Another Location

Airport:

Trip Planner

Search our weather history database for the weather conditions in past years. The results will help you decide how hot, cold, wet, or windy it might be!

Date:

Astronomy

Oct. 20, 2012 Rise Set
Actual Time 7:23 AM EDT 6:20 PM EDT
Civil Twilight 6:56 AM EDT 6:47 PM EDT
Nautical Twilight 6:24 AM EDT 7:18 PM EDT
Astronomical Twilight 5:53 AM EDT 7:50 PM EDT
Moon 12:57 PM EDT (10/20) 11:03 PM EDT (10/20)
Length of Visible Light 11h 51m
Length of Day
10h 56m
Waxing Crescent, 34% of the Moon is Illuminated
Oct 20
Waxing Crescent
Oct 21
First Quarter
Oct 29
Full
Nov 6
Last Quarter
Nov 13
New

Hourly Weather History & Observations

Time (EDT) Temp. Dew Point Humidity Pressure Visibility Wind Dir Wind Speed Gust Speed Precip Events Conditions
12:39 AM 50.0 °F 48.2 °F 94% 29.67 in 1.2 mi Calm Calm - N/A   Scattered Clouds
12:42 AM 50.0 °F 48.2 °F 94% 29.67 in 0.8 mi Calm Calm - N/A   Mist
12:53 AM 48.9 °F 46.9 °F 93% 29.68 in 0.2 mi Calm Calm - N/A Fog Fog
1:39 AM 50.0 °F 48.2 °F 94% 29.68 in 1.2 mi West 5.8 mph - N/A   Mostly Cloudy
1:48 AM 48.2 °F 48.2 °F 100% 29.68 in 0.8 mi WNW 3.5 mph - N/A   Mist
1:53 AM 48.9 °F 48.0 °F 97% 29.69 in 0.5 mi WNW 4.6 mph - N/A Fog Fog
2:53 AM 48.9 °F 48.0 °F 97% 29.69 in 0.2 mi Calm Calm - N/A Fog Fog
3:53 AM 46.0 °F 45.0 °F 96% 29.70 in 0.8 mi Calm Calm - 0.01 in   Mist
3:59 AM 46.4 °F 44.6 °F 93% 29.69 in 1.2 mi Calm Calm - N/A   Scattered Clouds
4:03 AM 46.4 °F 46.4 °F 100% 29.68 in 3.0 mi Calm Calm - N/A   Partly Cloudy
4:19 AM 48.2 °F 46.4 °F 93% 29.70 in 2.0 mi Calm Calm - N/A   Clear
4:25 AM 46.4 °F 46.4 °F 100% 29.71 in 3.0 mi Calm Calm - N/A   Clear
4:53 AM 46.9 °F 45.0 °F 93% 29.72 in 6.0 mi Calm Calm - N/A   Clear
5:44 AM 44.6 °F 42.8 °F 93% 29.71 in 2.0 mi Calm Calm - N/A   Clear
5:53 AM 44.1 °F 43.0 °F 96% 29.72 in 3.0 mi Calm Calm - N/A   Clear
5:58 AM 44.6 °F 42.8 °F 93% 29.72 in 2.0 mi Calm Calm - N/A   Clear
6:04 AM 44.6 °F 42.8 °F 93% 29.72 in 1.0 mi Calm Calm - N/A   Clear
6:15 AM 44.6 °F 42.8 °F 93% 29.72 in 2.5 mi Calm Calm - N/A   Clear
6:22 AM 44.6 °F 42.8 °F 93% 29.72 in 7.0 mi Calm Calm - N/A   Clear
6:53 AM 43.0 °F 41.0 °F 93% 29.74 in 7.0 mi Calm Calm - N/A   Partly Cloudy
7:53 AM 46.0 °F 44.1 °F 93% 29.76 in 10.0 mi Calm Calm - N/A   Overcast
8:53 AM 51.1 °F 46.9 °F 86% 29.78 in 10.0 mi Calm Calm - N/A   Overcast
9:53 AM 50.0 °F 45.0 °F 83% 29.79 in 10.0 mi Calm Calm - N/A   Overcast
10:53 AM 54.0 °F 43.0 °F 66% 29.80 in 10.0 mi WSW 5.8 mph - N/A   Overcast
11:53 AM 57.0 °F 39.0 °F 51% 29.80 in 10.0 mi WNW 9.2 mph - N/A   Overcast
12:53 PM 61.0 °F 39.9 °F 46% 29.78 in 10.0 mi West 9.2 mph - N/A   Scattered Clouds
1:53 PM 61.0 °F 37.0 °F 41% 29.78 in 10.0 mi West 12.7 mph 19.6 mph N/A   Partly Cloudy
2:53 PM 59.0 °F 37.0 °F 44% 29.78 in 10.0 mi West 10.4 mph 17.3 mph N/A   Scattered Clouds
3:53 PM 61.0 °F 36.0 °F 39% 29.78 in 10.0 mi West 6.9 mph 17.3 mph N/A   Partly Cloudy
5:53 PM 57.9 °F 35.1 °F 42% 29.82 in 10.0 mi WSW 8.1 mph - N/A   Clear
6:53 PM 52.0 °F 37.0 °F 57% 29.84 in 10.0 mi West 3.5 mph - N/A   Clear
7:53 PM 54.0 °F 36.0 °F 51% 29.86 in 10.0 mi West 4.6 mph - N/A   Clear
8:53 PM 52.0 °F 37.0 °F 57% 29.88 in 10.0 mi WSW 3.5 mph - N/A   Clear
9:53 PM 50.0 °F 37.9 °F 63% 29.90 in 10.0 mi West 3.5 mph - N/A   Clear
10:53 PM 50.0 °F 37.9 °F 63% 29.92 in 10.0 mi SW 4.6 mph - N/A   Clear
11:53 PM 48.9 °F 37.9 °F 66% 29.93 in 10.0 mi Variable 4.6 mph - N/A   Clear